This is the latest recevied weather packets stored in our database for station/object LA9TLA-1. If no packets are shown the sender has not sent any weather packets the latest 10 day(s).
| Time | Temp. | Humidity | Pressure | Rain* | Wind** | Luminosity | Snow |
|---|---|---|---|---|---|---|---|
| 1777478266 | 11.67° C | 99% | 1041 hPa | 0 mm | - | - | - |
| 1777474667 | 12.22° C | 99% | 1041.3 hPa | 0 mm | - | - | - |
| 1777472870 | 11.67° C | 99% | 1041.3 hPa | 0 mm | - | - | - |
| 1777471066 | 11.67° C | 99% | 1041.5 hPa | 0 mm | - | - | - |
| 1777469267 | 12.22° C | 99% | 1041.3 hPa | 0 mm | - | - | - |
| 1777467468 | 12.22° C | 99% | 1041.4 hPa | 0 mm | - | - | - |
| 1777463870 | 12.22° C | 99% | 1041.3 hPa | 0 mm | - | - | - |
| 1777462066 | 12.22° C | 92% | 1041.3 hPa | 0 mm | - | - | - |
| 1777460267 | 11.67° C | 99% | 1041.4 hPa | 0 mm | - | - | - |
| 1777456671 | 11.67° C | 99% | 1041.5 hPa | 0 mm | - | - | - |
| 1777454867 | 11.11° C | 99% | 1041.8 hPa | 0 mm | - | - | - |
| 1777453067 | 11.11° C | 99% | 1041.8 hPa | 0 mm | - | - | - |
| 1777449467 | 9.44° C | 99% | 1041.6 hPa | 0 mm | - | - | - |
| 1777444072 | 8.89° C | 99% | 1041.3 hPa | 0 mm | - | - | - |
| 1777442269 | 7.22° C | 99% | 1041.4 hPa | 0 mm | - | - | - |
| 1777440470 | 7.22° C | 99% | 1041.4 hPa | 0 mm | - | - | - |
| 1777436868 | 6.67° C | 99% | 1040.8 hPa | 0 mm | - | - | - |
| 1777435067 | 6.11° C | 99% | 1040.5 hPa | 0 mm | - | - | - |
| 1777433270 | 6.11° C | 99% | 1040.4 hPa | 0 mm | - | - | - |
| 1777431467 | 6.67° C | 99% | 1040.3 hPa | 0 mm | - | - | - |
| 1777427869 | 5.56° C | 99% | 1040.5 hPa | 0 mm | - | - | - |
| 1777426067 | 6.11° C | 99% | 1040.1 hPa | 0 mm | - | - | - |
| 1777422468 | 6.67° C | 99% | 1040.3 hPa | 0 mm | - | - | - |
| 1777420668 | 7.22° C | 99% | 1040.4 hPa | 0 mm | - | - | - |
| 1777418871 | 7.22° C | 99% | 1040.3 hPa | 0 mm | - | - | - |
* Rain latest hour (hover to see other rain measurements)
** Current wind speed in m/s (hover to see current wind gust speed)